Weather History for Peru, IN

Change the Weather History Date:

Sunday, November 3, 2013

  Actual Average Record
Temperature  
Mean Temperature 42 °F -  
Max Temperature 52 °F 53 °F 75 °F (2003)
Min Temperature 32 °F 37 °F 19 °F (2006)
Degree Days  
Heating Degree Days 24    
Moisture  
Dew Point 38 °F    
Average Humidity 90    
Maximum Humidity 100    
Minimum Humidity 62    
Precipitation  
Precipitation 0.00 in - - ()
Sea Level Pressure  
Sea Level Pressure 30.27 in    
Wind  
Wind Speed 6 mph (South)    
Max Wind Speed 10 mph    
Max Gust Speed -    
Visibility 8 miles    
Events Fog    
Averages and records for this station are not official NWS values.
T = Trace of Precipitation, MM = Missing Value Source: NWS Daily Summary

Daily Weather History Graph

Daily Weather History Graph

Search for Another Location

Airport:

Trip Planner

Search our weather history database for the weather conditions in past years. The results will help you decide how hot, cold, wet, or windy it might be!

Date:

Astronomy

Nov. 03, 2013 Rise Set
Actual Time 7:17 AM EST 5:38 PM EST
Civil Twilight 6:48 AM EST 6:06 PM EST
Nautical Twilight 6:16 AM EST 6:39 PM EST
Astronomical Twilight 5:44 AM EST 7:11 PM EST
Moon 7:20 AM EST (11/3) 5:52 PM EST (11/3)
Length of Visible Light 11h 17m
Length of Day
10h 20m
Waxing Crescent, 0% of the Moon is Illuminated
Nov 3
Waxing Crescent
Nov 10
First Quarter
Nov 17
Full
Nov 25
Last Quarter
Dec 2
New

Hourly Weather History & Observations

Time (EST) Temp. Windchill Dew Point Humidity Pressure Visibility Wind Dir Wind Speed Gust Speed Precip Events Conditions
12:56 AM 42.8 °F 37.0 °F 42.8 °F 100% 30.12 in 10.0 mi WNW 10.4 mph - N/A   Overcast
1:58 AM 40.5 °F 36.5 °F 40.5 °F 100% 30.14 in 10.0 mi WNW 5.8 mph - N/A   Overcast
1:58 AM 37.4 °F 33.8 °F 37.2 °F 99% 30.16 in 10.0 mi NW 4.6 mph - N/A   Clear
2:58 AM 35.6 °F 29.2 °F 35.6 °F 100% 30.19 in 10.0 mi West 8.1 mph - N/A   Partly Cloudy
3:58 AM 36.9 °F 32.2 °F 36.9 °F 100% 30.20 in 10.0 mi NW 5.8 mph - N/A   Clear
4:58 AM 35.1 °F 32.2 °F 35.1 °F 100% 30.23 in 10.0 mi WNW 3.5 mph - N/A   Clear
5:23 AM 35.6 °F 32.8 °F 35.6 °F 100% 30.21 in 9.0 mi NNW 3.5 mph - N/A   Clear
5:58 AM 34.0 °F 29.8 °F 34.0 °F 100% 30.25 in 8.0 mi West 4.6 mph - N/A   Clear
6:08 AM 32.0 °F 27.5 °F 32.0 °F 100% 30.22 in 2.0 mi West 4.6 mph - N/A   Clear
6:13 AM 32.0 °F 28.7 °F 32.0 °F 100% 30.22 in 1.0 mi West 3.5 mph - N/A   Clear
6:18 AM 32.0 °F 28.7 °F 32.0 °F 100% 30.22 in 0.8 mi WNW 3.5 mph - N/A   Clear
6:23 AM 32.0 °F 28.7 °F 32.0 °F 100% 30.23 in 1.0 mi NW 3.5 mph - N/A   Clear
6:28 AM 32.0 °F - 32.0 °F 100% 30.23 in 3.0 mi WNW 2.3 mph - N/A   Clear
6:38 AM 32.0 °F - 32.0 °F 100% 30.23 in 1.2 mi WNW 2.3 mph - N/A   Clear
6:43 AM 32.0 °F - 32.0 °F 100% 30.23 in 0.8 mi WNW 2.3 mph - N/A   Clear
6:48 AM 32.0 °F 28.7 °F 32.0 °F 100% 30.23 in 0.5 mi West 3.5 mph - N/A Fog Fog
6:53 AM 32.0 °F 27.5 °F 32.0 °F 100% 30.24 in 0.2 mi West 4.6 mph - N/A Fog Fog
6:58 AM 32.7 °F 29.6 °F 32.7 °F 100% 30.27 in 0.2 mi West 3.5 mph - N/A Fog Fog
11:33 AM 46.4 °F 41.9 °F 42.8 °F 87% 30.33 in 10.0 mi SE 9.2 mph - N/A   Mostly Cloudy
11:38 AM 44.6 °F 39.7 °F 42.8 °F 93% 30.33 in 10.0 mi SE 9.2 mph - N/A   Mostly Cloudy
11:48 AM 44.6 °F 40.7 °F 42.8 °F 93% 30.33 in 10.0 mi SE 6.9 mph - N/A   Mostly Cloudy
11:58 AM 45.5 °F 41.8 °F 42.4 °F 89% 30.33 in 10.0 mi SSE 6.9 mph - N/A   Mostly Cloudy
12:18 PM 48.2 °F - 41.0 °F 76% 30.32 in 10.0 mi SE 9.2 mph - N/A   Scattered Clouds
12:58 PM 46.8 °F - 41.2 °F 81% 30.34 in 10.0 mi ESE 9.2 mph - N/A   Partly Cloudy
1:23 PM 48.2 °F - 41.0 °F 76% 30.30 in 10.0 mi ESE 8.1 mph - N/A   Mostly Cloudy
1:48 PM 48.2 °F - 41.0 °F 76% 30.29 in 10.0 mi SE 8.1 mph - N/A   Scattered Clouds
1:58 PM 47.3 °F - 39.9 °F 76% 30.32 in 10.0 mi SE 8.1 mph - N/A   Partly Cloudy
2:38 PM 50.0 °F - 41.0 °F 71% 30.29 in 10.0 mi SSE 8.1 mph - N/A   Mostly Cloudy
2:48 PM 50.0 °F - 39.2 °F 66% 30.29 in 10.0 mi SSE 5.8 mph - N/A   Scattered Clouds
2:58 PM 50.4 °F - 39.9 °F 67% 30.31 in 10.0 mi SE 9.2 mph - N/A   Scattered Clouds
3:58 PM 51.3 °F - 38.5 °F 62% 30.32 in 10.0 mi SE 6.9 mph - N/A   Mostly Cloudy
4:58 PM 49.5 °F - 39.4 °F 68% 30.31 in 10.0 mi SE 6.9 mph - N/A   Scattered Clouds
5:58 PM 45.1 °F 42.8 °F 39.4 °F 80% 30.32 in 10.0 mi East 4.6 mph - N/A   Clear
6:58 PM 44.2 °F 39.7 °F 39.4 °F 83% 30.32 in 10.0 mi East 8.1 mph - N/A   Clear
7:58 PM 43.0 °F 38.2 °F 39.9 °F 89% 30.33 in 10.0 mi East 8.1 mph - N/A   Clear
8:58 PM 41.7 °F 36.7 °F 39.7 °F 93% 30.33 in 10.0 mi East 8.1 mph - N/A   Clear
9:58 PM 40.5 °F 35.1 °F 39.6 °F 97% 30.36 in 10.0 mi ESE 8.1 mph - N/A   Clear
10:58 PM 40.3 °F 34.9 °F 39.6 °F 97% 30.36 in 10.0 mi ESE 8.1 mph - N/A   Clear